• In Czech Republic
  • List of Countries
  • For 7 days
  • Water Temperature
  • Satellite Maps
  • Weather Map
  • Weather Widgets
  • user-avatar
    Login

    Hourly Weather Ischgl

    Today, 20 October, Saturday

    Time Temperature Precipitation Wind Pressure Humidity
    00:00 0°C° 0 mm 0 mps 577 mmHg 88%
    01:00 +1°C° 0 mm 1 mps 577 mmHg 87%
    02:00 +1°C° 0 mm 1 mps 577 mmHg 87%
    03:00 +1°C° 0 mm 1 mps 577 mmHg 86%
    04:00 0°C° 0 mm 1 mps 577 mmHg 85%
    05:00 0°C° 0 mm 1 mps 577 mmHg 84%
    06:00 0°C° 0 mm 1 mps 577 mmHg 83%
    07:00 0°C° 0 mm 1 mps 577 mmHg 82%
    08:00 +3°C° 0 mm 1 mps 579 mmHg 72%
    09:00 +5°C° 0 mm 1 mps 580 mmHg 61%
    10:00 +7°C° 0 mm 1 mps 581 mmHg 51%
    11:00 +7°C° 0 mm 2 mps 582 mmHg 49%
    12:00 +8°C° 0 mm 2 mps 582 mmHg 47%
    13:00 +9°C° 0 mm 2 mps 582 mmHg 44%
    14:00 +8°C° 0 mm 2 mps 582 mmHg 49%
    15:00 +7°C° 0 mm 2 mps 581 mmHg 54%
    16:00 +7°C° 0 mm 2 mps 581 mmHg 60%
    17:00 +5°C° 0 mm 2 mps 580 mmHg 70%
    18:00 +3°C° 0 mm 2 mps 579 mmHg 80%
    19:00 +2°C° 0 mm 1 mps 579 mmHg 90%
    20:00 +2°C° 0 mm 1 mps 579 mmHg 91%
    21:00 +2°C° 0 mm 1 mps 579 mmHg 92%
    22:00 +1°C° 0 mm 1 mps 579 mmHg 93%
    23:00 +1°C° 0 mm 1 mps 578 mmHg 92%

    Tomorrow, 21 October, Sunday

    Time Temperature Precipitation Wind Pressure Humidity
    00:00 0°C° 0 mm 1 mps 578 mmHg 90%
    01:00 0°C° 0 mm 1 mps 578 mmHg 89%
    02:00 0°C° 0 mm 1 mps 577 mmHg 85%
    03:00 0°C° 0 mm 1 mps 577 mmHg 81%
    04:00 0°C° 0 mm 1 mps 577 mmHg 77%
    05:00 0°C° 0 mm 1 mps 577 mmHg 77%
    06:00 -1°C° 0 mm 1 mps 577 mmHg 77%
    07:00 -3°C° 0 mm 2 mps 576 mmHg 77%
    08:00 -1°C° 0 mm 2 mps 577 mmHg 68%
    09:00 +2°C° 0 mm 2 mps 578 mmHg 59%
    10:00 +4°C° 0 mm 3 mps 579 mmHg 51%
    11:00 +4°C° 0 mm 3 mps 579 mmHg 48%
    12:00 +4°C° 0 mm 3 mps 579 mmHg 45%
    13:00 +5°C° 0 mm 3 mps 579 mmHg 42%
    14:00 +4°C° 0 mm 3 mps 578 mmHg 46%
    15:00 +3°C° 0 mm 3 mps 578 mmHg 51%
    16:00 +3°C° 0 mm 3 mps 577 mmHg 56%
    17:00 +2°C° 0 mm 2 mps 577 mmHg 67%
    18:00 -1°C° 0 mm 2 mps 576 mmHg 78%
    19:00 -1°C° 0 mm 1 mps 575 mmHg 89%
    20:00 -2°C° 0 mm 1 mps 575 mmHg 89%
    21:00 -2°C° 0 mm 1 mps 575 mmHg 89%
    22:00 -3°C° 0 mm 1 mps 575 mmHg 89%
    23:00 -3°C° 0 mm 1 mps 575 mmHg 83%

    Day after tomorrow, 22 October, Monday

    Time Temperature Precipitation Wind Pressure Humidity
    00:00 -3°C° 0 mm 1 mps 575 mmHg 76%
    01:00 -3°C° 0 mm 1 mps 575 mmHg 70%
    02:00 -3°C° 0 mm 1 mps 575 mmHg 63%
    03:00 -3°C° 0 mm 1 mps 574 mmHg 57%
    04:00 -3°C° 0 mm 1 mps 574 mmHg 51%
    05:00 -3°C° 0 mm 1 mps 574 mmHg 49%
    06:00 -3°C° 0 mm 1 mps 574 mmHg 47%
    07:00 -3°C° 0 mm 1 mps 575 mmHg 45%
    08:00 -1°C° 0 mm 1 mps 576 mmHg 41%
    09:00 -1°C° 0 mm 2 mps 577 mmHg 38%
    10:00 +3°C° 0 mm 2 mps 578 mmHg 34%
    11:00 +3°C° 0 mm 2 mps 578 mmHg 35%
    12:00 +4°C° 0 mm 2 mps 578 mmHg 36%
    13:00 +3°C° 0 mm 3 mps 578 mmHg 37%
    14:00 +3°C° 0 mm 3 mps 578 mmHg 44%
    15:00 +2°C° 0 mm 3 mps 577 mmHg 50%
    16:00 +1°C° 0 mm 3 mps 577 mmHg 56%
    17:00 -1°C° 0 mm 3 mps 577 mmHg 67%
    18:00 -2°C° 0 mm 2 mps 576 mmHg 78%
    19:00 -4°C° 0 mm 2 mps 576 mmHg 89%
    20:00 -4°C° 0 mm 2 mps 576 mmHg 90%
    21:00 -4°C° 0 mm 2 mps 576 mmHg 90%
    22:00 -4°C° 0 mm 2 mps 577 mmHg 91%
    23:00 -4°C° 0 mm 2 mps 577 mmHg 91%

    23 October, Tuesday

    Time Temperature Precipitation Wind Pressure Humidity
    00:00 -5°C° 0 mm 2 mps 577 mmHg 91%
    01:00 -5°C° 0 mm 2 mps 576 mmHg 92%
    02:00 -5°C° 0 mm 2 mps 576 mmHg 90%
    03:00 -5°C° 0 mm 2 mps 576 mmHg 89%
    04:00 -5°C° 0 mm 2 mps 576 mmHg 88%
    05:00 -5°C° 0 mm 2 mps 576 mmHg 87%
    06:00 -5°C° 0 mm 2 mps 577 mmHg 85%
    07:00 -5°C° 0 mm 2 mps 577 mmHg 84%
    08:00 -4°C° 0 mm 2 mps 577 mmHg 80%
    09:00 -3°C° 0 mm 2 mps 578 mmHg 76%
    10:00 -2°C° 0 mm 3 mps 578 mmHg 72%
    11:00 -1°C° 0 mm 3 mps 578 mmHg 68%
    12:00 +1°C° 0 mm 2 mps 578 mmHg 64%
    13:00 +1°C° 0 mm 2 mps 579 mmHg 60%
    14:00 +1°C° 0 mm 2 mps 578 mmHg 62%
    15:00 +1°C° 0 mm 2 mps 578 mmHg 64%
    16:00 -1°C° 0 mm 2 mps 578 mmHg 66%
    17:00 -2°C° 0 mm 2 mps 577 mmHg 75%
    18:00 -4°C° 0 mm 2 mps 577 mmHg 83%
    19:00 -5°C° 0 mm 2 mps 577 mmHg 91%
    20:00 -5°C° 0 mm 2 mps 576 mmHg 90%
    21:00 -5°C° 0 mm 2 mps 576 mmHg 89%
    22:00 -6°C° 0 mm 2 mps 576 mmHg 88%
    23:00 -5°C° 0 mm 2 mps 576 mmHg 82%

    24 October, Wednesday

    Time Temperature Precipitation Wind Pressure Humidity
    00:00 -4°C° 0 mm 2 mps 577 mmHg 77%
    01:00 -4°C° 0 mm 2 mps 577 mmHg 72%
    02:00 -3°C° 0.1 mm 2 mps 577 mmHg 73%
    03:00 -3°C° 0.1 mm 2 mps 576 mmHg 73%
    04:00 -3°C° 0.1 mm 2 mps 576 mmHg 74%
    05:00 -3°C° 0.2 mm 2 mps 576 mmHg 77%
    06:00 -3°C° 0.2 mm 2 mps 576 mmHg 80%
    07:00 -4°C° 0.2 mm 3 mps 576 mmHg 83%
    08:00 -2°C° 0.3 mm 3 mps 576 mmHg 85%
    09:00 -2°C° 0.3 mm 3 mps 577 mmHg 86%
    10:00 -1°C° 0.3 mm 3 mps 577 mmHg 87%
    11:00 -1°C° 0.2 mm 3 mps 577 mmHg 87%
    12:00 0°C° 0.2 mm 3 mps 577 mmHg 86%
    13:00 +1°C° 0.2 mm 3 mps 577 mmHg 86%
    14:00 0°C° 0.3 mm 3 mps 577 mmHg 88%
    15:00 0°C° 0.3 mm 3 mps 577 mmHg 90%
    16:00 0°C° 0.3 mm 3 mps 577 mmHg 92%
    17:00 0°C° 0.3 mm 3 mps 577 mmHg 93%
    18:00 0°C° 0.3 mm 3 mps 577 mmHg 95%
    19:00 -1°C° 0.3 mm 3 mps 577 mmHg 96%
    20:00 -1°C° 0.2 mm 3 mps 577 mmHg 96%
    21:00 -1°C° 0.2 mm 3 mps 577 mmHg 96%
    22:00 -1°C° 0.2 mm 3 mps 578 mmHg 96%
    23:00 -1°C° 0.1 mm 2 mps 577 mmHg 97%

    25 October, Thursday

    Time Temperature Precipitation Wind Pressure Humidity
    00:00 -1°C° 0.1 mm 2 mps 577 mmHg 97%
    01:00 -1°C° 0.1 mm 2 mps 577 mmHg 97%
    02:00 -1°C° 0 mm 2 mps 577 mmHg 97%
    03:00 -1°C° 0 mm 2 mps 577 mmHg 97%
    04:00 -1°C° 0 mm 2 mps 577 mmHg 97%
    05:00 -2°C° 0 mm 2 mps 577 mmHg 97%
    06:00 0°C° 0 mm 1 mps 577 mmHg 97%
    07:00 0°C° 0 mm 1 mps 576 mmHg 96%
    08:00 +1°C° 0 mm 1 mps 577 mmHg 89%
    09:00 +3°C° 0 mm 1 mps 578 mmHg 82%
    10:00 +4°C° 0 mm 1 mps 578 mmHg 75%
    11:00 +6°C° 0 mm 1 mps 578 mmHg 69%
    12:00 +6°C° 0 mm 2 mps 579 mmHg 64%
    13:00 +7°C° 0 mm 2 mps 579 mmHg 58%
    14:00 +6°C° 0 mm 2 mps 578 mmHg 62%
    15:00 +6°C° 0 mm 2 mps 578 mmHg 66%
    16:00 +5°C° 0 mm 2 mps 577 mmHg 70%
    17:00 +3°C° 0 mm 2 mps 577 mmHg 77%
    18:00 +2°C° 0 mm 1 mps 576 mmHg 85%
    19:00 0°C° 0 mm 1 mps 575 mmHg 92%
    20:00 0°C° 0 mm 1 mps 575 mmHg 92%
    21:00 -2°C° 0 mm 2 mps 575 mmHg 92%
    22:00 -3°C° 0 mm 2 mps 575 mmHg 92%
    23:00 -3°C° 0 mm 2 mps 575 mmHg 88%
    Show more